Theta_e
304 299 293 295 305 311 316 319 317 316 317 316 318 327 326 329 336 333 336 342 343 352 352 351 351 350 349 347 346 344 342 342
299 298 303 302 307 311 312 317 319 317 312 316 325 327 328 337 335 332 335 339 345 352 352 352 352 351 349 348 347 345 343 343
296 299 304 309 310 310 311 315 316 316 312 313 323 331 337 336 335 330 333 335 340 352 352 352 352 351 349 349 348 347 346 344
294 298 305 307 309 309 314 317 316 315 312 313 321 332 336 336 333 331 331 332 335 350 351 351 352 351 349 349 348 347 347 347
297 300 303 306 309 308 309 312 314 315 311 313 319 325 337 336 334 331 330 330 332 342 348 352 351 350 350 349 348 348 348 347
297 299 300 307 308 308 311 312 317 318 310 308 316 322 334 334 333 331 330 327 329 337 341 343 344 351 350 350 349 348 348 348
298 300 302 305 304 310 315 313 314 315 315 318 321 321 320 319 321 327 334 329 327 333 336 339 340 344 350 350 350 349 348 348
305 306 304 309 308 309 310 310 311 313 317 320 320 319 318 317 319 321 329 332 332 334 332 335 338 337 343 342 342 342 342 341
309 311 311 309 309 312 309 306 311 312 315 317 317 317 317 317 317 318 325 331 336 335 334 332 334 335 339 341 339 340 339 338
312 314 315 313 314 311 312 310 316 316 318 317 316 315 314 314 316 313 312 322 335 337 335 333 333 333 335 337 337 337 338 337
315 316 313 313 311 311 311 316 317 318 318 315 315 315 314 315 315 314 311 314 329 336 336 335 333 332 334 336 336 335 337 338
307 307 308 307 307 308 310 315 314 313 312 313 312 313 312 312 313 314 315 313 320 335 336 336 335 333 334 335 336 335 337 338
300 300 301 306 302 304 310 312 311 312 312 312 313 313 312 314 313 314 315 315 313 332 335 335 335 334 334 335 336 335 336 336
300 302 302 303 296 305 310 310 309 310 310 311 312 312 314 314 313 315 313 314 315 328 334 335 335 335 334 336 336 335 334 335
296 303 303 302 299 305 310 309 307 308 309 311 312 312 312 314 314 314 314 314 313 317 327 334 334 332 333 334 336 335 334 334
294 300 302 300 299 303 306 307 306 307 308 309 310 312 314 315 315 314 313 314 313 318 326 328 329 330 331 332 331 333 333 335
296 300 300 299 299 302 305 304 304 306 307 307 307 310 312 313 314 313 313 315 315 323 328 332 332 330 327 328 326 326 331 335
293 297 295 295 296 299 301 303 305 305 306 307 308 308 311 312 312 315 316 321 321 327 331 331 332 327 326 325 324 326 327 332
289 294 295 293 291 294 298 299 302 304 304 305 305 306 308 309 311 315 320 324 327 329 331 332 330 328 325 325 324 323 323 325
291 288 284 291 283 291 295 296 299 301 302 301 303 307 307 308 309 317 321 327 330 331 332 332 330 328 327 322 321 321 323 324
Wind_Speed
4 4 7 6 6 2 6 8 3 2 4 8 3 2 4 1 12 12 14 14 15 23 23 24 23 21 21 19 18 18 19 18
2 9 6 6 3 4 8 8 6 1 6 2 2 5 7 10 13 14 13 13 18 24 24 23 22 20 20 20 19 19 18 18
3 6 5 4 5 3 10 5 3 2 2 0 2 2 9 12 13 15 12 12 16 25 23 21 21 21 20 20 20 19 18 18
6 5 4 6 5 5 3 7 4 4 5 3 1 6 8 10 11 12 16 14 13 19 20 22 22 22 21 21 21 20 19 18
4 4 3 5 4 2 4 6 5 8 5 3 3 6 5 10 8 9 9 12 11 13 16 21 22 21 21 21 21 20 20 19
5 4 4 4 1 2 6 8 7 4 2 4 6 9 6 3 3 2 2 7 9 11 13 13 13 22 22 22 22 21 20 20
6 6 5 6 5 2 5 4 6 6 4 8 7 7 7 2 1 3 5 6 6 10 12 13 12 14 20 22 21 20 19 19
8 10 3 6 9 8 4 3 5 5 5 1 2 5 9 8 10 9 11 10 10 11 14 13 11 10 12 10 11 12 11 12
8 9 3 6 9 5 7 8 8 3 11 8 2 7 8 10 10 15 21 9 15 15 14 14 13 9 7 7 7 8 11 9
15 11 4 14 6 11 14 12 16 14 6 8 11 10 9 9 11 8 10 16 15 17 14 14 9 10 10 8 8 8 9 10
18 15 10 10 17 14 19 14 13 14 14 12 11 11 9 9 8 9 7 10 14 13 14 14 13 9 9 11 10 9 8 10
11 10 6 12 21 15 14 19 14 11 11 11 11 12 7 8 9 9 10 9 10 13 16 13 14 14 11 9 9 8 8 9
10 4 7 1 23 25 18 15 16 18 16 10 10 9 11 10 9 10 8 10 11 16 11 13 17 14 9 8 8 9 8 10
12 10 6 7 29 11 11 14 19 12 9 9 12 9 10 9 10 11 8 10 9 10 14 15 14 11 9 8 8 8 8 8
9 5 8 17 30 13 14 12 16 13 14 14 15 11 10 12 13 12 12 12 10 10 11 13 9 7 7 7 7 7 7 7
11 4 11 15 27 12 10 13 17 17 17 19 19 18 17 18 16 10 10 7 7 6 8 8 6 5 4 5 4 6 7 7
8 10 14 19 24 20 15 11 17 18 18 18 11 11 15 14 12 9 9 9 9 8 7 9 6 5 4 6 4 3 4 8
7 8 4 10 17 10 10 13 15 18 17 16 14 11 17 12 9 11 9 9 8 7 9 6 4 4 4 4 3 3 4 6
5 9 17 12 18 12 13 9 12 17 10 10 9 14 15 10 11 8 9 8 7 8 9 8 9 7 4 4 4 3 3 3
8 5 11 3 19 18 21 24 20 19 18 9 11 14 10 11 9 10 8 6 6 8 9 8 8 8 11 5 4 2 3 3
Wind_Direction
148 180 188 214 218 348 301 287 271 296 116 147 203 124 188 233 143 138 157 166 171 176 181 180 182 179 175 174 170 170 169 169
158 227 252 211 258 327 294 281 198 82 70 81 191 175 181 143 147 148 164 170 177 181 184 184 182 180 178 176 175 177 178 177
226 251 263 247 251 226 270 276 26 39 99 255 340 27 137 155 156 161 173 180 184 187 184 183 185 186 183 180 181 182 183 183
236 232 244 260 265 311 310 267 297 118 119 194 313 154 180 165 171 177 175 181 190 188 188 187 187 189 189 185 185 186 187 187
248 257 261 248 211 249 278 290 286 145 115 229 219 229 165 181 177 186 176 176 178 189 196 197 192 194 192 190 191 190 191 190
245 219 243 241 229 183 45 329 311 120 163 215 226 204 169 168 49 42 240 199 183 183 191 200 203 197 196 196 195 195 195 192
239 181 232 320 21 152 334 6 354 351 164 215 203 146 118 107 163 189 206 208 202 187 206 198 205 209 202 202 201 201 199 197
216 224 270 317 310 336 325 26 300 326 293 347 296 160 172 190 216 212 217 212 190 199 202 200 202 204 205 202 204 203 200 197
236 228 248 278 285 298 307 294 207 260 292 319 256 221 207 210 207 213 216 192 201 204 206 197 200 195 199 199 200 202 198 187
253 240 249 262 275 281 274 263 297 293 265 289 275 273 212 231 239 215 198 214 206 206 200 201 196 200 200 200 200 203 198 184
251 252 253 272 261 255 264 266 269 279 275 262 257 252 253 248 258 249 229 220 217 200 199 197 199 199 198 201 201 197 188 187
264 264 252 267 271 264 263 270 272 259 254 258 245 248 261 260 254 257 251 235 209 203 203 188 202 205 204 199 194 190 187 187
230 246 250 348 268 252 248 267 262 261 263 249 254 250 235 247 253 242 244 247 202 204 186 195 202 206 198 194 187 190 187 178
251 214 235 167 256 257 228 235 255 266 262 267 271 268 279 262 250 261 249 250 228 183 191 195 200 198 193 187 185 188 180 172
256 199 201 200 260 248 255 255 266 273 276 281 282 285 279 264 258 251 236 239 223 181 192 194 192 183 183 169 179 175 161 175
233 200 215 246 259 243 272 278 273 270 273 271 270 272 272 270 268 262 248 242 232 172 180 165 141 126 113 135 150 164 173 176
264 220 211 237 258 259 252 241 253 257 257 262 256 263 270 266 264 269 246 220 210 186 164 144 148 145 148 175 148 146 163 166
295 296 251 279 276 281 261 254 248 254 261 264 272 278 273 271 259 249 243 216 216 184 157 156 123 113 138 139 123 136 150 161
252 327 299 306 284 279 262 246 260 266 253 250 236 258 269 273 249 250 230 208 188 154 137 136 129 116 80 75 72 82 80 90
236 212 261 206 287 275 276 271 259 259 260 251 242 250 253 260 267 229 217 138 145 132 139 132 143 128 147 139 135 140 138 146